Date String (YYYY-MM-DD hh:mm:ss) UTC,Instrument flags,Ambient pressure (hPa),Sample flow (lpm),Bypass flow (lpm),Sample temperature (°C),Ambient temperature (°C),ASC tube jacket temperature (°C),LED temperature (°C),Box temperature (°C),Sample RH (%),Span deviation,Mass concentration (μg/m³),Mass concentration (μg/m³),Mass concentration (μg/m³)
DateTimeUTC,F1_M11,P_M11,Q1_M11,Q2_M11,T1_M11,T2_M11,T3_M11,T4_M11,T5_M11,U1_M11,ZSPAN_M11,X0_M11,X2_M11,X1_M11
2022-03-23 09:00:00,,0827.5,5.01,0.00,21.4,22.1,00.0,30.4,23.2,07.9,0000.0,0002.16,0000.82,0000.54
2022-03-23 09:01:00,,0827.5,4.99,0.00,21.4,21.6,00.0,30.4,23.1,07.9,0000.0,0002.27,0000.81,0000.55
2022-03-23 09:02:00,,0827.5,4.99,0.00,21.3,21.1,00.0,30.4,22.9,07.9,0000.0,0002.29,0000.83,0000.56
2022-03-23 09:03:00,,0827.5,5.01,0.00,21.3,20.8,00.0,30.4,22.8,08.0,0000.0,0002.29,0000.85,0000.56
2022-03-23 09:04:00,,0827.4,5.01,0.00,21.2,20.6,00.0,30.3,22.7,07.9,0000.0,0002.21,0000.82,0000.56
2022-03-23 09:05:00,,0827.4,5.00,0.00,21.1,20.4,00.0,30.3,22.6,07.9,0000.0,0002.26,0000.82,0000.56
2022-03-23 09:06:00,,0827.4,5.00,0.00,21.0,20.3,00.0,30.3,22.5,07.9,0000.0,0002.30,0000.83,0000.56
2022-03-23 09:07:00,,0827.4,4.99,0.00,21.0,20.1,00.0,30.2,22.4,08.0,0000.0,0002.29,0000.83,0000.56
2022-03-23 09:08:00,,0827.4,5.00,0.00,20.9,20.3,00.0,30.2,22.4,08.0,0000.0,0002.33,0000.84,0000.56
2022-03-23 09:09:00,,0827.4,5.00,0.00,21.1,21.4,00.0,30.3,22.8,08.0,0000.0,0002.24,0000.82,0000.56
2022-03-23 09:10:00,,0827.4,5.00,0.00,21.3,22.4,00.0,30.3,23.2,07.9,0000.0,0002.18,0000.81,0000.55
2022-03-23 09:11:00,,0827.4,5.00,0.00,21.4,22.4,00.0,30.3,23.3,07.8,0000.0,0001.89,0000.82,0000.55
2022-03-23 09:12:00,,0827.4,5.00,0.00,21.4,21.9,00.0,30.3,23.2,07.9,0000.0,0001.48,0000.83,0000.54
2022-03-23 09:13:00,,0827.4,4.99,0.00,21.3,21.5,00.0,30.3,23.0,07.9,0000.0,0001.57,0000.85,0000.55
2022-03-23 09:14:00,,0827.3,5.00,0.00,21.3,21.1,00.0,30.3,22.8,08.0,0000.0,0001.60,0000.82,0000.54
2022-03-23 09:15:00,,0827.2,5.00,0.00,21.2,20.9,00.0,30.3,22.7,08.0,0000.0,0001.52,0000.79,0000.53
2022-03-23 09:16:00,,0827.2,5.01,0.00,21.1,20.6,00.0,30.3,22.6,08.0,0000.0,0001.48,0000.78,0000.53
2022-03-23 09:17:00,,0827.3,5.00,0.00,21.0,20.4,00.0,30.3,22.5,08.1,0000.0,0001.44,0000.78,0000.54
2022-03-23 09:18:00,,0827.3,4.99,0.00,21.0,20.2,00.0,30.2,22.4,08.0,0000.0,0001.49,0000.79,0000.54
2022-03-23 09:19:00,,0827.2,5.00,0.00,20.9,20.3,00.0,30.2,22.4,08.0,0000.0,0001.68,0000.82,0000.54
2022-03-23 09:20:00,,0827.3,5.00,0.00,21.0,21.2,00.0,30.2,22.7,07.9,0000.0,0001.69,0000.83,0000.54
2022-03-23 09:21:00,,0827.5,5.02,0.00,21.2,22.3,00.0,30.3,23.1,07.9,0000.0,0001.68,0000.83,0000.55
2022-03-23 09:22:00,,0827.6,4.99,0.00,21.4,22.7,00.0,30.3,23.3,07.8,0000.0,0001.69,0000.85,0000.56
2022-03-23 09:23:00,,0827.5,5.01,0.00,21.4,22.4,00.0,30.3,23.3,07.8,0000.0,0001.70,0000.86,0000.55
2022-03-23 09:24:00,,0827.3,5.00,0.00,21.4,22.0,00.0,30.3,23.1,07.8,0000.0,0001.61,0000.83,0000.54
2022-03-23 09:25:00,,0827.2,5.00,0.00,21.4,21.6,00.0,30.3,23.0,07.8,0000.0,0001.54,0000.84,0000.53
2022-03-23 09:26:00,,0827.2,4.98,0.00,21.3,21.2,00.0,30.3,22.8,07.8,0000.0,0002.75,0000.87,0000.54
2022-03-23 09:27:00,,0827.2,5.00,0.00,21.2,20.9,00.0,30.3,22.7,07.7,0000.0,0003.00,0000.88,0000.54
2022-03-23 09:28:00,,0827.2,5.01,0.00,21.1,20.6,00.0,30.3,22.6,07.8,0000.0,0002.94,0000.86,0000.54
2022-03-23 09:29:00,,0827.1,4.99,0.00,21.1,20.4,00.0,30.3,22.5,07.8,0000.0,0002.98,0000.86,0000.54
2022-03-23 09:30:00,,0827.1,4.99,0.00,21.0,20.2,00.0,30.2,22.4,07.8,0000.0,0002.81,0000.82,0000.53
2022-03-23 09:31:00,,0827.2,5.00,0.00,20.9,20.1,00.0,30.2,22.3,07.8,0000.0,0002.89,0000.85,0000.53
2022-03-23 09:32:00,,0827.2,5.01,0.00,21.0,21.0,00.0,30.2,22.6,07.8,0000.0,0002.88,0000.84,0000.52
2022-03-23 09:33:00,,0827.2,5.01,0.00,21.2,22.0,00.0,30.3,23.0,07.7,0000.0,0002.82,0000.81,0000.52
2022-03-23 09:34:00,,0827.1,4.99,0.00,21.4,22.7,00.0,30.3,23.3,07.6,0000.0,0002.77,0000.77,0000.51
2022-03-23 09:35:00,,0827.1,5.00,0.00,21.4,22.2,00.0,30.3,23.2,07.6,0000.0,0002.79,0000.77,0000.51
2022-03-23 09:36:00,,0827.1,4.98,0.00,21.3,21.7,00.0,30.3,22.9,07.7,0000.0,0002.81,0000.79,0000.52
2022-03-23 09:37:00,,0827.1,5.02,0.00,21.2,21.3,00.0,30.3,22.7,07.7,0000.0,0001.79,0000.81,0000.52
2022-03-23 09:38:00,,0827.1,4.98,0.00,21.2,20.9,00.0,30.3,22.7,07.7,0000.0,0001.53,0000.82,0000.52
2022-03-23 09:39:00,,0827.1,5.00,0.00,21.1,20.6,00.0,30.3,22.6,07.7,0000.0,0001.60,0000.83,0000.52
2022-03-23 09:40:00,,0827.1,5.00,0.00,21.0,20.4,00.0,30.2,22.5,07.7,0000.0,0001.47,0000.80,0000.51
2022-03-23 09:41:00,,0827.0,5.00,0.00,21.0,20.2,00.0,30.2,22.4,07.7,0000.0,0001.42,0000.78,0000.51
2022-03-23 09:42:00,,0827.0,5.00,0.00,20.9,20.1,00.0,30.2,22.3,07.8,0000.0,0001.33,0000.76,0000.51
2022-03-23 09:43:00,,0826.9,4.99,0.00,20.9,20.7,00.0,30.2,22.5,07.8,0000.0,0001.34,0000.77,0000.51
2022-03-23 09:44:00,,0826.9,5.01,0.00,21.1,21.9,00.0,30.2,22.9,07.9,0000.0,0001.50,0000.82,0000.52
2022-03-23 09:45:00,,0826.9,5.00,0.00,21.3,22.8,00.0,30.3,23.3,07.8,0000.0,0001.66,0000.86,0000.52
2022-03-23 09:46:00,,0827.0,4.99,0.00,21.4,22.6,00.0,30.3,23.3,07.8,0000.0,0001.70,0000.88,0000.52
2022-03-23 09:47:00,,0827.0,5.01,0.00,21.4,22.2,00.0,30.3,23.2,07.8,0000.0,0001.65,0000.85,0000.52
2022-03-23 09:48:00,,0826.9,4.99,0.00,21.4,21.8,00.0,30.3,23.1,07.7,0000.0,0001.51,0000.80,0000.52
2022-03-23 09:49:00,,0826.9,5.02,0.00,21.3,21.4,00.0,30.3,22.9,07.7,0000.0,0001.49,0000.79,0000.51
2022-03-23 09:50:00,,0826.9,4.98,0.00,21.3,21.1,00.0,30.3,22.9,07.7,0000.0,0001.41,0000.78,0000.50
2022-03-23 09:51:00,,0826.9,5.00,0.00,21.2,20.9,00.0,30.3,22.8,07.7,0000.0,0001.46,0000.80,0000.51
2022-03-23 09:52:00,,0826.9,4.99,0.00,21.2,20.7,00.0,30.3,22.7,07.7,0000.0,0001.48,0000.81,0000.52
2022-03-23 09:53:00,,0826.9,5.00,0.00,21.1,20.5,00.0,30.3,22.6,07.8,0000.0,0001.51,0000.81,0000.52
2022-03-23 09:54:00,,0826.9,5.00,0.00,21.1,20.4,00.0,30.3,22.5,07.8,0000.0,0001.54,0000.81,0000.51
2022-03-23 09:55:00,,0826.9,4.99,0.00,21.0,20.3,00.0,30.2,22.5,07.9,0000.0,0001.45,0000.78,0000.51
2022-03-23 09:56:00,,0826.9,5.00,0.00,21.0,20.2,00.0,30.2,22.4,07.9,0000.0,0001.29,0000.74,0000.50
2022-03-23 09:57:00,,0826.9,5.01,0.00,21.0,20.9,00.0,30.2,22.7,07.9,0000.0,0001.24,0000.72,0000.50
2022-03-23 09:58:00,,0826.9,5.01,0.00,21.2,22.0,00.0,30.3,23.1,07.8,0000.0,0001.40,0000.71,0000.49
2022-03-23 09:59:00,,0826.9,5.00,0.00,21.4,22.7,00.0,30.3,23.4,07.7,0000.0,0002.51,0000.71,0000.49
